{"data":{"norad_id":53675,"intl_designator":"2022-105AD","name":"STARLINK-4617","alt_names":[],"object_type":"PAYLOAD","status":"ACTIVE","operator":null,"country":"US","launch_date":"2022-08-31","launch_site_code":"AFWTR","launch_vehicle":null,"mission":null,"orbit_class":"UNKNOWN","rcs_meters":null,"size_class":null,"mass_kg":null,"dimensions":null,"purposes":["comms"],"wikipedia_slug":null,"has_3d_model":false,"image_url":null,"decayed_at":null,"tle_current":{"epoch":"2026-05-25T02:11:04.769088Z","epoch_age_seconds":63527,"freshness":"FRESH","line1":"1 53675U 22105AD  26145.09102742  .00017077  00000+0  11873-2 0  9992","line2":"2 53675  97.4532  26.2148 0001928  89.6198 270.5250 15.05569238204801","mean_motion":15.05569238,"eccentricity":0.0001928,"inclination_deg":97.4532,"raan_deg":26.2148,"arg_perigee_deg":89.6198,"mean_anomaly_deg":270.525,"bstar":0.0011873,"rev_number":20480,"period_min":95.644887239653,"perigee_km":548.42319621267,"apogee_km":551.09459286961,"semimajor_km":6927.8958945411,"source":"CELESTRAK","updated_at":"2026-05-25T13:38:17.490114Z"}}}